{"data":{"norad_id":63893,"epoch":"2026-09-20T23:26:04.282080Z","epoch_age_seconds":105836,"freshness":"FRESH","line1":"1 63893U 25095D   26263.97643845  .00009005  00000+0  33621-3 0  9996","line2":"2 63893  42.9987 153.4036 0001219 268.7668  91.3044 15.27595362 77659","mean_motion":15.27595362,"eccentricity":0.0001219,"inclination_deg":42.9987,"raan_deg":153.4036,"arg_perigee_deg":268.7668,"mean_anomaly_deg":91.3044,"bstar":0.00033621,"rev_number":7765,"period_min":94.265800736308,"perigee_km":482.16672409286,"apogee_km":483.83947004852,"semimajor_km":6861.1400970707,"source":"CELESTRAK","updated_at":"2026-09-21T09:00:35.143123Z"}}